COSMOS 1275 DEB, 18592

Orbit data source: Space-Track

COSMOS 1275 DEB, 18592 is space debris in LEO originally from a launch on Thu, 04 Jun 1981 UTC launched from the Plesetsk Missile And Space Complex (PKMTR). Debris objects in space refer to the collection of defunct objects orbiting the Earth. Examples of debris include non-operational satellites, rocket bodies, and fragments generated from explosions, collisions, or faulty payload assembly.

Loading next visibility...
Identifier
18592, 1981-053LU
Orbit
LEO
Country
Flag of CISCIS
Related business
Manufacturer
Unknown
Mission
Spacecraft
Bus & Motor
Unknown
Mass
Unknown
Launch date (UTC)
1981-06-04 (45 years ago)
Launch vehicle
Unknown
Launch site
Plesetsk Missile And Space Complex (PKMTR)
Object type
Payload
Rocket body
Debris
Shape & HBR
Unknown shape, 0.1 m
Radar Cross Section
Small (<0.1 m²)

Expand to show TLE details & history
Last TLE update: 2 days ago

TLE from 2 days ago
0 COSMOS 1275 DEB
1 18592U 81053LU  26099.08679463  .00002726  00000-0  97775-3 0  9996
2 18592  82.9339 129.6339 0009068  20.3916   8.0017 14.33617894693817
Epoch: 2026-04-09T02:04Z
TLE epoch observation values (Epoch: 2026-04-09T02:04:59.056Z)
Latitude
28.2164°
Longitude
-95.15879°
Altitude
776.767 km
Speed
7.471 km/s
True Right ascension
08h 53m 42s
True Declination
28° 04' 26"
Sunlit
Object was in daylight at epoch
Visualization orbit readout
Latitude
Unknown
Longitude
Unknown
Altitude
Unknown
Speed
Unknown
Apparent Right ascension
Unknown
Apparent Declination
Unknown
Sunlit
N/A
Visualization observer readout
Local Sidereal Time
02:21:48
Azimuth
Unknown
Elevation
Unknown
Doppler factor
Unknown
Orbital elements
Apogee altitude
783.22 km
Perigee altitude
770.244 km
Semi-major axis
7,154.869 km
Eccentricity
0.00091
Inclination
82.9339°
RAAN
129.6339°
Arg. of periapsis
20.3916°
True anomaly
8.01618°
Mean anomaly
8.0017°
Eccentric anomaly
8.00894°
Mean motion
3.58625 °/min
Orbital period
100.38 mins
BSTAR
0.00097775
Loading maneuver chart data...
Computing Atmospheric mass density...

Documentation

Showing up to 5 results
|